Location: Byszew
(52.1813°N, 19.2693°E)
Time: 04:27:10
(UTC+00:00)

Cosmos 1844 - Pass Details

Date: 15 June 2021
Orbit: 823 x 867 km, 70.9° (Epoch: 03 August)

Event Time Altitude Azimuth Distance (km) Brightness Sun altitude
Rises 21:33:02 0° 323° (NW) 3,371 8.3 -12.9°
Reaches altitude 10° 21:35:43 10° 313° (NW) 2,435 7.1 -13.0°
Maximum altitude 21:40:28 30° 254° (WSW) 1,456 4.9 -13.2°
Enters shadow 21:44:32 13° 200° (SSW) 2,212 5.4 -13.4°
